Tracking 26940 objects as of 28-Jan-2023
HD Live streaming from Space Station
objects crossing your sky now

FALCON 9 R/B

Track FALCON 9 R/B now!
FALCON 9 R/B is classified as:


NORAD ID: 54260
Int'l Code: 2022-157B
Perigee: 223.2 km
Apogee: 59,082.3 km
Inclination: 21.9 °
Period: 1,134.1 minutes
Semi major axis: 36023 km
RCS: Unknown
Launch date: November 23, 2022
Source: United States (US)
Launch site: AIR FORCE EASTERN TEST RANGE (AFETR)
Your satellite tracking list
Your tracking list is empty




NASA's NSSDC Master Catalog

Two Line Element Set (TLE):
1 54260U 22157B   23023.70155933  .00040789  00000-0  14130-1 0  9995
2 54260  21.9086 285.8609 8169497 199.5802  83.5340  1.26975404   765
Source of the keplerian elements: AFSPC